Location: Balaclava NSW 2575, Australia
(34.4510°S, 150.4953°E)
Time: 16:21:33
(UTC+10:00)

Envisat - Pass Details

Date: 25 May 2021
Orbit: 764 x 766 km, 98.1° (Epoch: 18 June)

Event Time Altitude Azimuth Distance (km) Brightness Sun altitude
Rises 17:44:51 0° 174° (S) 3,266 6.0 -9.7°
Reaches altitude 10° 17:47:13 10° 178° (S) 2,332 5.3 -10.2°
Maximum altitude 17:52:13 54° 254° (WSW) 939 3.8 -11.2°
Drops below altitude 10° 17:57:09 10° 330° (NNW) 2,304 6.2 -12.1°
Sets 17:59:29 0° 334° (NNW) 3,222 6.9 -12.6°
